TimeCDT,TemperatureF,Dew PointF,Humidity,Sea Level PressureIn,VisibilityMPH,Wind Direction,Wind SpeedMPH,Gust SpeedMPH,PrecipitationIn,Events,Conditions,WindDirDegrees,DateUTC
12:15 AM,70.2,62.1,75,29.98,10.0,Calm,Calm,-,N/A,,Clear,0,2013-07-05 05:15:00
12:35 AM,68.2,61.7,80,29.98,10.0,Calm,Calm,-,N/A,,Clear,0,2013-07-05 05:35:00
12:55 AM,68.2,61.2,78,29.98,10.0,Calm,Calm,-,N/A,,Clear,0,2013-07-05 05:55:00
1:15 AM,63.9,61.0,90,29.98,10.0,Calm,Calm,-,N/A,,Clear,0,2013-07-05 06:15:00
1:35 AM,64.2,61.2,90,29.98,10.0,Calm,Calm,-,N/A,,Clear,0,2013-07-05 06:35:00
1:55 AM,63.9,61.0,90,29.98,10.0,Calm,Calm,-,N/A,,Clear,0,2013-07-05 06:55:00
2:15 AM,63.5,61.0,91,29.98,10.0,Calm,Calm,-,N/A,,Clear,0,2013-07-05 07:15:00
2:35 AM,64.0,60.8,89,29.98,10.0,Calm,Calm,-,N/A,,Clear,0,2013-07-05 07:35:00
2:55 AM,63.9,60.8,90,29.98,10.0,Calm,Calm,-,N/A,,Clear,0,2013-07-05 07:55:00
3:15 AM,64.4,62.1,92,29.97,10.0,Calm,Calm,-,N/A,,Clear,0,2013-07-05 08:15:00
3:35 AM,64.0,61.2,90,29.97,10.0,North,-9999.0,-,N/A,,Clear,0,2013-07-05 08:35:00
3:55 AM,64.2,60.8,89,29.97,10.0,North,-9999.0,-,N/A,,Clear,0,2013-07-05 08:55:00
4:15 AM,64.6,59.9,85,29.96,10.0,North,-9999.0,-,N/A,,Clear,0,2013-07-05 09:15:00
4:35 AM,64.4,59.5,84,29.97,10.0,South,4.6,-,N/A,,Clear,180,2013-07-05 09:35:00
4:55 AM,62.2,59.2,90,29.98,10.0,Calm,Calm,-,N/A,Thunderstorm,Clear,0,2013-07-05 09:55:00
5:15 AM,62.2,58.6,88,29.98,10.0,Calm,Calm,-,N/A,,Clear,0,2013-07-05 10:15:00
5:35 AM,61.2,59.2,93,29.99,10.0,Calm,Calm,-,N/A,,Clear,0,2013-07-05 10:35:00
5:55 AM,60.6,58.3,92,29.99,10.0,Calm,Calm,-,N/A,,Clear,0,2013-07-05 10:55:00
6:15 AM,59.9,57.9,93,30.00,7.0,Calm,Calm,-,N/A,,Clear,0,2013-07-05 11:15:00
6:35 AM,60.3,59.5,97,29.99,5.0,ESE,3.5,-,N/A,,Clear,110,2013-07-05 11:35:00
6:55 AM,62.4,60.1,92,29.99,7.0,East,5.8,-,N/A,,Clear,100,2013-07-05 11:55:00
7:15 AM,63.7,60.6,90,30.00,10.0,Calm,Calm,-,N/A,,Clear,0,2013-07-05 12:15:00
7:35 AM,66.4,61.2,83,30.01,10.0,Calm,Calm,-,N/A,,Clear,0,2013-07-05 12:35:00
7:55 AM,68.4,61.3,78,30.01,10.0,Calm,Calm,-,N/A,,Clear,0,2013-07-05 12:55:00
8:15 AM,70.2,61.7,74,30.01,10.0,SSE,5.8,-,N/A,,Clear,160,2013-07-05 13:15:00
8:35 AM,72.5,61.3,68,30.02,10.0,South,6.9,-,N/A,,Clear,170,2013-07-05 13:35:00
8:55 AM,73.8,61.7,66,30.02,10.0,SSE,6.9,-,N/A,,Clear,150,2013-07-05 13:55:00
9:15 AM,75.2,61.9,63,30.02,10.0,SSE,6.9,-,N/A,,Clear,150,2013-07-05 14:15:00
9:35 AM,77.2,62.1,59,30.01,10.0,SSE,6.9,-,N/A,,Clear,150,2013-07-05 14:35:00
9:55 AM,77.4,62.1,59,30.02,10.0,North,-9999.0,-,N/A,,Clear,0,2013-07-05 14:55:00
10:15 AM,78.6,63.3,59,30.02,10.0,SSW,9.2,-,N/A,,Clear,200,2013-07-05 15:15:00
10:35 AM,81.3,63.9,55,30.01,10.0,South,10.4,-,N/A,,Clear,170,2013-07-05 15:35:00
10:55 AM,83.7,64.2,52,30.00,10.0,South,9.2,-,N/A,,Clear,190,2013-07-05 15:55:00
11:15 AM,84.6,63.5,49,30.01,10.0,SW,9.2,-,N/A,,Clear,220,2013-07-05 16:15:00
11:35 AM,85.1,62.6,47,30.01,10.0,SW,9.2,-,N/A,,Clear,220,2013-07-05 16:35:00
11:55 AM,85.6,62.6,46,30.00,10.0,South,10.4,-,N/A,,Clear,190,2013-07-05 16:55:00
12:15 PM,86.0,62.6,45,30.00,10.0,South,9.2,-,N/A,,Clear,190,2013-07-05 17:15:00
12:35 PM,86.2,61.2,43,29.99,10.0,South,8.1,18.4,N/A,,Clear,190,2013-07-05 17:35:00
12:55 PM,87.4,59.5,39,29.99,10.0,North,-9999.0,-,N/A,,Clear,0,2013-07-05 17:55:00
1:15 PM,87.8,60.3,39,29.98,10.0,South,9.2,-,N/A,,Clear,170,2013-07-05 18:15:00
1:35 PM,88.0,59.2,38,29.98,10.0,SSW,8.1,-,N/A,,Clear,200,2013-07-05 18:35:00
1:55 PM,87.6,59.4,38,29.97,10.0,SSE,8.1,-,N/A,,Clear,150,2013-07-05 18:55:00
2:15 PM,88.3,60.4,39,29.97,10.0,SE,5.8,-,N/A,,Clear,140,2013-07-05 19:15:00
2:35 PM,90.0,58.5,34,29.96,10.0,South,6.9,-,N/A,,Clear,190,2013-07-05 19:35:00
2:55 PM,89.4,60.8,38,29.96,10.0,SSE,8.1,-,N/A,,Clear,150,2013-07-05 19:55:00
3:15 PM,89.6,59.5,36,29.96,10.0,South,10.4,-,N/A,,Clear,170,2013-07-05 20:15:00
3:35 PM,88.5,59.0,37,29.95,10.0,North,-9999.0,-,N/A,,Clear,0,2013-07-05 20:35:00
3:55 PM,88.9,57.9,35,29.94,10.0,North,-9999.0,-,N/A,,Clear,0,2013-07-05 20:55:00
4:15 PM,91.0,60.1,35,29.94,10.0,SSE,9.2,-,N/A,,Clear,160,2013-07-05 21:15:00
4:35 PM,89.4,58.5,35,29.93,10.0,North,-9999.0,-,N/A,,Clear,0,2013-07-05 21:35:00
4:55 PM,89.2,61.5,39,29.93,10.0,North,-9999.0,-,N/A,,Clear,0,2013-07-05 21:55:00
5:15 PM,87.3,62.6,44,29.92,10.0,SE,6.9,-,N/A,,Clear,140,2013-07-05 22:15:00
5:35 PM,86.7,62.6,44,29.92,10.0,North,-9999.0,-,N/A,,Clear,0,2013-07-05 22:35:00
5:55 PM,86.2,63.0,46,29.91,10.0,North,-9999.0,-,N/A,,Clear,0,2013-07-05 22:55:00
6:15 PM,88.3,64.4,45,29.90,10.0,SE,8.1,-,N/A,,Clear,140,2013-07-05 23:15:00
6:35 PM,87.8,63.9,45,29.90,10.0,North,-9999.0,-,N/A,,Clear,0,2013-07-05 23:35:00
6:55 PM,88.2,63.1,43,29.91,10.0,North,-9999.0,-,N/A,,Clear,0,2013-07-05 23:55:00
7:15 PM,87.8,62.1,42,29.89,10.0,SE,8.1,-,N/A,,Clear,140,2013-07-06 00:15:00
7:35 PM,86.0,63.3,47,29.89,10.0,North,-9999.0,-,N/A,,Clear,0,2013-07-06 00:35:00
7:55 PM,84.0,63.9,51,29.89,10.0,North,-9999.0,-,N/A,,Clear,0,2013-07-06 00:55:00
8:15 PM,81.9,64.9,56,29.89,10.0,Calm,Calm,-,N/A,,Clear,0,2013-07-06 01:15:00
8:35 PM,81.1,65.5,59,29.89,10.0,Calm,Calm,-,N/A,,Clear,0,2013-07-06 01:35:00
8:55 PM,77.7,66.6,68,29.90,10.0,ESE,5.8,-,N/A,,Clear,110,2013-07-06 01:55:00
9:15 PM,77.0,66.2,69,29.91,10.0,ESE,6.9,-,N/A,,Clear,110,2013-07-06 02:15:00
9:35 PM,78.8,65.7,64,29.92,10.0,ESE,8.1,-,N/A,,Clear,120,2013-07-06 02:35:00
9:55 PM,77.4,65.7,67,29.92,10.0,ESE,6.9,-,N/A,,Clear,120,2013-07-06 02:55:00
10:15 PM,76.1,65.5,70,29.93,10.0,SE,6.9,-,N/A,,Clear,140,2013-07-06 03:15:00
10:35 PM,75.4,65.7,72,29.93,10.0,South,8.1,-,N/A,,Clear,170,2013-07-06 03:35:00
10:55 PM,75.2,66.0,73,29.94,10.0,South,8.1,-,N/A,,Clear,180,2013-07-06 03:55:00
11:15 PM,74.5,66.2,75,29.94,10.0,SE,6.9,-,N/A,,Clear,140,2013-07-06 04:15:00
11:35 PM,74.3,66.2,76,29.94,10.0,SSE,3.5,-,N/A,,Clear,150,2013-07-06 04:35:00
11:55 PM,73.8,65.7,76,29.95,10.0,SE,5.8,-,N/A,,Clear,140,2013-07-06 04:55:00